Regional Weather Roundup
Issued by NWS

Home | Current Version | Previous Version | Graphics & Text | Print | Product List | Glossary Off
Versions: 1 2 3 4 5 6 7 8 9 10 11 12 13 14 15 16 17 18 19 20 21 22 23 24 25 26 27 28 29 30 31 32 33 34 35 36 37 38 39 40 41 42 43 44 45 46 47 48 49 50

000
ASUS43 KTOP 010959
RWRKS

WEATHER ROUNDUP FOR KANSAS
NATIONAL WEATHER SERVICE GOODLAND KS
500 AM CDT SAT OCT 01 2016

NOTE:  "FAIR" INDICATES FEW OR NO CLOUDS BELOW 12,000 FEET WITH NO
SIGNIFICANT WEATHER AND/OR OBSTRUCTIONS TO VISIBILITY.

KSZ001>006-013>018-027>032-041>047-011100-
NORTHWEST KANSAS

CITY           SKY/WX    TMP DP  RH WIND       PRES   REMARKS
GOODLAND       CLEAR     49  43  80 S3        30.11F
HAYS           CLOUDY    50  37  62 E5        30.12F
HILL CITY      CLOUDY    49  46  90 E3        30.13F
RUSSELL        CLOUDY    53  47  79 SE6       30.11F
$$

KSZ061>065-074>080-084>089-011100-
SOUTHWEST KANSAS

CITY           SKY/WX    TMP DP  RH WIND       PRES   REMARKS
DODGE CITY     PTCLDY    57  47  69 SE5       30.11S
ELKHART          N/A     55  45  69 S9          N/A
GARDEN CITY    CLEAR     56  46  69 SE10      30.08F
GREAT BEND     CLOUDY    54  41  62 CALM      30.12F
LIBERAL        PTCLDY    59  46  63 S10       30.07F
$$

KSZ066>073-081>083-090>101-011100-
SOUTHEAST KANSAS

CITY           SKY/WX    TMP DP  RH WIND       PRES   REMARKS
CHANUTE        PTCLDY    52  50  93 CALM      30.11S
COFFEYVILLE    CLEAR     51  51 100 N5        30.11F
HUTCHINSON     CLEAR     47  46  97 CALM      30.12F
MEDICINE LODGE   N/A     56  52  86 SE3       30.11F
NEWTON         CLEAR     56  48  74 SE6       30.12F
PARSONS        PTCLDY    49  48  97 CALM      30.12S
WICHITA INTL   PTCLDY    55  51  86 NE3       30.11F
WICHITA JABRA  CLEAR     53  51  93 CALM      30.11F
WINFIELD       PTCLDY    53  50  89 CALM      30.12F
$$

KSZ007>012-019>026-033>040-048>060-102>105-011100-
NORTHEAST KANSAS

CITY           SKY/WX    TMP DP  RH WIND       PRES   REMARKS
CONCORDIA      CLOUDY    50  48  93 E5        30.13F
EMPORIA        CLOUDY    52  50  93 W5        30.12S
LAWRENCE       CLEAR     48  48 100 NW6       30.12S
MANHATTAN      CLOUDY    50  49  96 CALM      30.13S
OLATHE IND     CLEAR     51  51 100 CALM      30.12S FOG
OLATHE EXE     PTCLDY    53  51  93 NW3       30.12S
SALINA         PTCLDY    51  47  86 CALM      30.13F
TOPEKA BILLARD PTCLDY    51  49  92 CALM      30.13R FOG
TOPEKA FORBES  PTCLDY    51  48  89 CALM      30.12S
$$




USA.gov is the U.S. government's official web portal to all federal, state and local government web resources and services.